Flag for U.S.A. Weather past 2 weeks in Louisville, Kentucky, U.S.A.

Now
88 °F

Broken clouds.


Feels Like: 95 °F
Forecast: 73 / 80 °F
Wind: 18 mph from West

Location: Standiford Field

Current Time: Sep 2, 2014 at 5:42:12 PM

Latest Report: Sep 2, 2014 at 4:56 PM


Visibility: 10 mi

Pressure: 29.89 "Hg

Humidity: 59%

Dew point: 72 °F

Location of LouisvilleLocation

Historic Weather in Louisville — Graph

°F

Louisville temperature yesterday

Maximum temperature yesterday: 88 °F (at 2:56 PM)
Minimum temperature yesterday: 75 °F (at 2:56 AM)
Average temperature yesterday: 81 °F

Past Weeks' High & Low Weather Summary

 TemperatureHumidityPressure
High93 °F (Aug 25, 2:56 PM)94% (Aug 23, 2:56 AM)30.12 "Hg (Aug 23, 2:56 AM)
Low70 °F (Sep 2, 9:56 AM)38% (Aug 29, 5:56 PM)29.79 "Hg (Aug 19, 4:56 PM)
Average80 °F75%29.98 "Hg
* Reported Aug 18 3:56 PM — Sep 2 3:56 PM, Louisville, Weather by CustomWeather, © 2014

Note: Actual official high and low records may vary slightly from our data, if they occured in-between our weather recording intervals... More about our weather records

Advertising

Louisville weather history for previous 24 hours

 ConditionsComfort  
Time TempWeatherWind HumidityBarometerVisibility
3:56 PM
Sep 2
87 °FBroken clouds.18 mph61%29.90 "Hg10 mi
2:56 PM87 °FBroken clouds.12 mph63%29.93 "Hg10 mi
1:56 PM84 °FPartly sunny.12 mph70%29.94 "Hg10 mi
12:56 PM80 °FMostly cloudy.10 mph71%29.95 "Hg10 mi
11:56 AM79 °FMostly cloudy.10 mph74%29.97 "Hg10 mi
10:56 AM75 °FBroken clouds.8 mph82%29.97 "Hg10 mi
9:56 AM70 °FLight rain. Fog.7 mph93%29.97 "Hg5 mi
9:04 AM71 °FRain. Fog.No wind87%30.04 "Hg2 mi
8:56 AM71 °FLight rain. More clouds than sun.No wind87%30.01 "Hg10 mi
7:56 AM72 °FLight rain. Mostly cloudy.7 mph91%29.99 "Hg7 mi
6:56 AM79 °FMostly cloudy.10 mph72%29.94 "Hg10 mi
5:56 AM79 °FMostly cloudy.10 mph74%29.94 "Hg10 mi
4:56 AM79 °FOvercast.9 mph74%29.94 "Hg10 mi
3:56 AM79 °FMostly cloudy.10 mph74%29.95 "Hg10 mi
2:56 AM78 °FMostly cloudy.10 mph79%29.94 "Hg10 mi
1:56 AM77 °FPartly cloudy.8 mph85%29.96 "Hg10 mi
12:56 AM80 °FMostly cloudy.9 mph76%29.95 "Hg10 mi
11:56 PM
Sep 1
80 °FPassing clouds.8 mph76%29.95 "Hg10 mi
10:56 PM80 °FClear.8 mph76%29.96 "Hg10 mi
9:56 PM81 °FClear.9 mph74%29.96 "Hg10 mi
8:56 PM82 °FPassing clouds.10 mph72%29.94 "Hg10 mi
7:56 PM83 °FScattered clouds.10 mph68%29.93 "Hg10 mi
6:56 PM85 °FBroken clouds.13 mph63%29.94 "Hg10 mi
5:56 PM87 °FPartly sunny.15 mph59%29.91 "Hg10 mi
Weather by CustomWeather, © 2014

See weather overviewHow to use our weather pages